QPF
0.01 0.01 0.01 0.01 0.02 0.02 0.02 0.04 0.04 0.03 0.04 0.05 0.04 0.04 0.03 0.03 0.02 0.02 0.01 0.01 0.01 0.02 0.03 0.03 0.05 0.06 0.06 0.06 0.05 0.04 0.03 0.04 0.04 0.05 0.04 0.04 0.03 0.03 0.04 0.03 0.03 0.04 0.06
0.01 0.01 0.01 0.00 0.01 0.01 0.03 0.03 0.03 0.03 0.03 0.03 0.03 0.03 0.02 0.01 0.01 0.01 0.02 0.01 0.01 0.01 0.02 0.03 0.03 0.04 0.05 0.06 0.05 0.05 0.04 0.03 0.05 0.07 0.08 0.08 0.05 0.04 0.03 0.03 0.03 0.03 0.05
0.01 0.01 0.01 0.01 0.01 0.01 0.01 0.02 0.04 0.03 0.02 0.02 0.03 0.02 0.02 0.02 0.03 0.03 0.04 0.05 0.03 0.02 0.02 0.03 0.03 0.04 0.03 0.05 0.05 0.04 0.05 0.05 0.06 0.06 0.09 0.12 0.09 0.06 0.04 0.03 0.02 0.03 0.04
0.04 0.01 0.02 0.02 0.02 0.01 0.01 0.04 0.04 0.04 0.03 0.03 0.03 0.03 0.03 0.04 0.04 0.05 0.05 0.07 0.05 0.04 0.03 0.03 0.04 0.05 0.04 0.04 0.04 0.04 0.04 0.05 0.06 0.06 0.06 0.07 0.07 0.07 0.09 0.04 0.02 0.02 0.03
0.01 0.02 0.01 0.01 0.01 0.01 0.01 0.02 0.03 0.03 0.03 0.03 0.03 0.04 0.03 0.04 0.04 0.04 0.03 0.04 0.03 0.03 0.03 0.05 0.07 0.07 0.05 0.03 0.03 0.03 0.03 0.04 0.04 0.04 0.04 0.05 0.06 0.05 0.05 0.05 0.05 0.05 0.04
0.00 0.01 0.00 0.00 0.01 0.01 0.01 0.01 0.02 0.02 0.01 0.02 0.01 0.02 0.03 0.03 0.03 0.04 0.04 0.04 0.04 0.05 0.05 0.04 0.04 0.04 0.03 0.02 0.02 0.02 0.02 0.02 0.03 0.03 0.03 0.03 0.05 0.04 0.05 0.04 0.03 0.03 0.04
0.00 0.00 0.00 0.00 0.01 0.01 0.01 0.01 0.02 0.02 0.02 0.02 0.02 0.02 0.03 0.03 0.03 0.03 0.04 0.04 0.03 0.04 0.03 0.03 0.03 0.03 0.03 0.03 0.03 0.02 0.02 0.02 0.03 0.03 0.02 0.02 0.02 0.03 0.04 0.04 0.03 0.02 0.02
0.00 0.00 0.00 0.00 0.01 0.01 0.02 0.02 0.02 0.03 0.03 0.02 0.02 0.03 0.03 0.03 0.03 0.03 0.03 0.03 0.03 0.02 0.02 0.03 0.03 0.03 0.02 0.03 0.05 0.03 0.03 0.04 0.04 0.04 0.04 0.03 0.02 0.01 0.02 0.04 0.05 0.04 0.04
0.00 0.00 0.00 0.00 0.01 0.01 0.01 0.02 0.02 0.03 0.03 0.02 0.02 0.02 0.03 0.03 0.04 0.04 0.04 0.03 0.03 0.03 0.04 0.04 0.04 0.04 0.05 0.05 0.04 0.03 0.04 0.05 0.04 0.04 0.04 0.03 0.02 0.02 0.01 0.02 0.04 0.06 0.05
0.00 0.00 0.00 0.00 0.01 0.01 0.01 0.01 0.02 0.01 0.02 0.02 0.02 0.02 0.03 0.03 0.03 0.04 0.04 0.04 0.04 0.04 0.05 0.06 0.05 0.05 0.06 0.07 0.05 0.04 0.04 0.04 0.04 0.04 0.04 0.04 0.02 0.02 0.02 0.02 0.03 0.04 0.04
0.00 0.00 0.00 0.00 0.00 0.00 0.00 0.00 0.01 0.01 0.01 0.01 0.02 0.02 0.03 0.04 0.04 0.05 0.04 0.05 0.05 0.06 0.06 0.05 0.04 0.04 0.05 0.06 0.05 0.05 0.06 0.05 0.05 0.04 0.05 0.04 0.04 0.04 0.03 0.02 0.03 0.03 0.05
0.00 0.00 0.00 0.00 0.00 0.00 0.00 0.00 0.01 0.01 0.01 0.01 0.02 0.02 0.03 0.04 0.05 0.05 0.05 0.06 0.07 0.06 0.04 0.03 0.03 0.03 0.05 0.05 0.05 0.05 0.04 0.04 0.04 0.06 0.06 0.05 0.05 0.06 0.04 0.03 0.03 0.04 0.05
0.00 0.00 0.00 0.00 0.01 0.01 0.01 0.00 0.00 0.00 0.00 0.01 0.02 0.03 0.03 0.05 0.05 0.07 0.07 0.07 0.07 0.05 0.04 0.03 0.03 0.04 0.04 0.05 0.04 0.04 0.03 0.03 0.04 0.06 0.06 0.06 0.08 0.09 0.07 0.05 0.04 0.05 0.05
0.01 0.03 0.01 0.00 0.00 0.01 0.01 0.01 0.01 0.01 0.01 0.01 0.02 0.03 0.03 0.05 0.07 0.08 0.09 0.08 0.06 0.05 0.04 0.03 0.03 0.04 0.04 0.04 0.04 0.04 0.04 0.03 0.04 0.05 0.07 0.07 0.07 0.07 0.07 0.06 0.07 0.06 0.06
0.01 0.01 0.00 0.00 0.00 0.00 0.01 0.01 0.02 0.02 0.01 0.02 0.02 0.02 0.04 0.06 0.09 0.08 0.06 0.05 0.04 0.04 0.04 0.04 0.03 0.03 0.03 0.03 0.04 0.04 0.04 0.03 0.04 0.05 0.06 0.06 0.06 0.07 0.08 0.07 0.07 0.06 0.05
0.00 0.00 0.00 0.00 0.00 0.01 0.01 0.01 0.02 0.02 0.01 0.01 0.01 0.01 0.02 0.03 0.03 0.04 0.05 0.05 0.04 0.04 0.05 0.04 0.04 0.03 0.03 0.05 0.06 0.06 0.06 0.05 0.04 0.03 0.04 0.04 0.05 0.06 0.07 0.07 0.06 0.04 0.03
0.00 0.00 0.00 0.00 0.00 0.01 0.01 0.01 0.01 0.01 0.01 0.01 0.00 0.01 0.01 0.01 0.01 0.01 0.02 0.03 0.04 0.04 0.05 0.05 0.05 0.04 0.04 0.06 0.06 0.06 0.08 0.08 0.05 0.05 0.04 0.04 0.04 0.05 0.05 0.04 0.03 0.03 0.03
0.00 0.00 0.00 0.00 0.01 0.01 0.01 0.01 0.01 0.01 0.01 0.01 0.01 0.01 0.01 0.01 0.01 0.01 0.01 0.01 0.02 0.02 0.03 0.04 0.04 0.05 0.06 0.07 0.05 0.05 0.06 0.06 0.05 0.04 0.04 0.04 0.03 0.02 0.04 0.04 0.04 0.02 0.02
0.01 0.00 0.01 0.01 0.01 0.01 0.01 0.01 0.00 0.01 0.01 0.01 0.01 0.01 0.01 0.01 0.01 0.01 0.01 0.01 0.01 0.01 0.01 0.02 0.02 0.03 0.05 0.08 0.06 0.06 0.06 0.05 0.03 0.03 0.03 0.03 0.02 0.02 0.03 0.03 0.04 0.03 0.02
0.01 0.01 0.01 0.01 0.01 0.01 0.01 0.01 0.01 0.01 0.01 0.01 0.01 0.01 0.01 0.01 0.01 0.02 0.02 0.02 0.02 0.01 0.01 0.01 0.01 0.01 0.02 0.05 0.04 0.04 0.04 0.04 0.04 0.04 0.03 0.03 0.03 0.03 0.04 0.04 0.04 0.03 0.03
0.01 0.01 0.01 0.00 0.00 0.00 0.01 0.01 0.02 0.02 0.02 0.02 0.01 0.01 0.02 0.02 0.02 0.02 0.03 0.02 0.02 0.02 0.02 0.02 0.01 0.01 0.02 0.03 0.02 0.02 0.02 0.02 0.02 0.03 0.03 0.03 0.04 0.04 0.05 0.05 0.04 0.04 0.05
0.01 0.01 0.00 0.00 0.00 0.01 0.02 0.02 0.02 0.02 0.02 0.02 0.02 0.02 0.02 0.02 0.02 0.02 0.02 0.02 0.02 0.02 0.02 0.02 0.01 0.01 0.02 0.02 0.02 0.01 0.01 0.02 0.02 0.02 0.02 0.03 0.04 0.05 0.07 0.06 0.04 0.05 0.05
0.01 0.01 0.01 0.01 0.01 0.02 0.02 0.02 0.02 0.02 0.02 0.03 0.03 0.02 0.02 0.02 0.02 0.02 0.02 0.02 0.02 0.02 0.02 0.02 0.02 0.02 0.02 0.02 0.02 0.01 0.01 0.01 0.02 0.02 0.03 0.03 0.03 0.03 0.05 0.04 0.03 0.04 0.06
0.02 0.01 0.02 0.02 0.02 0.02 0.02 0.02 0.02 0.02 0.03 0.03 0.02 0.02 0.01 0.01 0.01 0.01 0.01 0.01 0.01 0.01 0.01 0.01 0.01 0.02 0.02 0.02 0.02 0.02 0.01 0.01 0.01 0.02 0.03 0.02 0.02 0.02 0.02 0.03 0.03 0.03 0.04
0.03 0.02 0.01 0.02 0.02 0.02 0.02 0.02 0.02 0.02 0.02 0.03 0.02 0.02 0.01 0.01 0.01 0.01 0.01 0.01 0.01 0.01 0.01 0.01 0.01 0.01 0.02 0.02 0.02 0.02 0.02 0.02 0.02 0.03 0.03 0.02 0.02 0.02 0.02 0.02 0.03 0.04 0.04
0.03 0.02 0.01 0.01 0.01 0.02 0.02 0.02 0.02 0.02 0.02 0.03 0.03 0.02 0.01 0.01 0.01 0.01 0.01 0.01 0.02 0.02 0.02 0.03 0.03 0.02 0.02 0.03 0.03 0.03 0.03 0.03 0.03 0.03 0.02 0.02 0.03 0.04 0.03 0.03 0.04 0.04 0.04
MSLP
1007.76 1008.31 1008.82 1009.27 1009.61 1009.84 1009.99 1010.07 1010.13 1010.21 1010.34 1010.54 1010.81 1011.13 1011.48 1011.83 1012.16 1012.44 1012.68 1012.87 1013.04 1013.19 1013.36 1013.56 1013.80 1014.10 1014.44 1014.82 1015.22 1015.62 1016.02 1016.39 1016.72 1017.01 1017.26 1017.48 1017.65 1017.79 1017.91 1018.01 1018.10 1018.18 1018.26
1007.31 1007.95 1008.58 1009.14 1009.59 1009.92 1010.15 1010.31 1010.43 1010.57 1010.74 1010.97 1011.24 1011.53 1011.84 1012.12 1012.37 1012.58 1012.74 1012.88 1013.02 1013.16 1013.34 1013.55 1013.80 1014.08 1014.38 1014.69 1015.00 1015.30 1015.60 1015.90 1016.20 1016.51 1016.83 1017.16 1017.49 1017.81 1018.12 1018.40 1018.65 1018.86 1019.02
1006.77 1007.47 1008.19 1008.84 1009.39 1009.82 1010.15 1010.40 1010.61 1010.83 1011.07 1011.34 1011.63 1011.93 1012.21 1012.45 1012.65 1012.79 1012.90 1013.00 1013.11 1013.24 1013.42 1013.64 1013.88 1014.14 1014.38 1014.61 1014.82 1015.00 1015.18 1015.38 1015.62 1015.92 1016.28 1016.71 1017.19 1017.69 1018.20 1018.68 1019.11 1019.46 1019.74
1006.23 1006.97 1007.73 1008.46 1009.09 1009.60 1010.02 1010.36 1010.66 1010.96 1011.27 1011.61 1011.95 1012.28 1012.57 1012.80 1012.96 1013.07 1013.15 1013.22 1013.31 1013.44 1013.62 1013.83 1014.07 1014.29 1014.48 1014.63 1014.73 1014.80 1014.86 1014.95 1015.12 1015.38 1015.75 1016.24 1016.82 1017.48 1018.15 1018.81 1019.41 1019.92 1020.31
1005.82 1006.55 1007.34 1008.09 1008.77 1009.34 1009.81 1010.22 1010.59 1010.96 1011.35 1011.76 1012.17 1012.55 1012.87 1013.12 1013.29 1013.40 1013.46 1013.52 1013.61 1013.73 1013.91 1014.12 1014.34 1014.53 1014.68 1014.76 1014.77 1014.74 1014.70 1014.69 1014.77 1014.97 1015.33 1015.83 1016.47 1017.22 1018.01 1018.80 1019.53 1020.16 1020.65
1005.63 1006.33 1007.10 1007.85 1008.53 1009.12 1009.62 1010.05 1010.47 1010.89 1011.34 1011.82 1012.29 1012.73 1013.11 1013.40 1013.60 1013.73 1013.81 1013.87 1013.96 1014.08 1014.25 1014.45 1014.66 1014.83 1014.95 1014.98 1014.94 1014.83 1014.71 1014.62 1014.62 1014.76 1015.07 1015.55 1016.20 1016.96 1017.81 1018.66 1019.47 1020.18 1020.75
1005.69 1006.35 1007.09 1007.81 1008.46 1009.03 1009.51 1009.95 1010.37 1010.81 1011.30 1011.81 1012.34 1012.84 1013.28 1013.63 1013.88 1014.04 1014.15 1014.23 1014.31 1014.43 1014.60 1014.79 1014.98 1015.15 1015.24 1015.26 1015.19 1015.05 1014.88 1014.74 1014.69 1014.77 1015.01 1015.44 1016.03 1016.77 1017.59 1018.45 1019.27 1020.02 1020.64
1006.01 1006.63 1007.32 1008.00 1008.61 1009.12 1009.56 1009.95 1010.35 1010.78 1011.26 1011.80 1012.36 1012.90 1013.39 1013.80 1014.10 1014.31 1014.45 1014.55 1014.65 1014.76 1014.91 1015.09 1015.27 1015.43 1015.52 1015.54 1015.47 1015.34 1015.16 1015.01 1014.92 1014.95 1015.14 1015.49 1016.01 1016.67 1017.43 1018.23 1019.02 1019.76 1020.40
1006.52 1007.12 1007.77 1008.39 1008.94 1009.39 1009.76 1010.10 1010.44 1010.83 1011.29 1011.82 1012.38 1012.95 1013.48 1013.93 1014.28 1014.54 1014.71 1014.83 1014.94 1015.05 1015.19 1015.35 1015.52 1015.66 1015.76 1015.79 1015.75 1015.65 1015.50 1015.36 1015.27 1015.28 1015.41 1015.70 1016.13 1016.69 1017.35 1018.07 1018.80 1019.50 1020.13
1007.12 1007.71 1008.34 1008.92 1009.41 1009.80 1010.10 1010.37 1010.65 1010.98 1011.40 1011.89 1012.45 1013.02 1013.57 1014.05 1014.44 1014.73 1014.94 1015.08 1015.20 1015.31 1015.43 1015.57 1015.72 1015.86 1015.96 1016.02 1016.01 1015.95 1015.85 1015.75 1015.68 1015.69 1015.80 1016.03 1016.38 1016.85 1017.41 1018.03 1018.68 1019.32 1019.92
1007.70 1008.31 1008.92 1009.47 1009.91 1010.24 1010.49 1010.70 1010.93 1011.21 1011.57 1012.03 1012.55 1013.11 1013.66 1014.16 1014.58 1014.90 1015.15 1015.32 1015.45 1015.56 1015.67 1015.79 1015.92 1016.05 1016.15 1016.22 1016.25 1016.24 1016.20 1016.15 1016.13 1016.16 1016.26 1016.46 1016.75 1017.14 1017.61 1018.14 1018.71 1019.29 1019.86
1008.15 1008.78 1009.39 1009.92 1010.33 1010.64 1010.85 1011.02 1011.21 1011.45 1011.78 1012.20 1012.69 1013.23 1013.77 1014.28 1014.72 1015.08 1015.35 1015.55 1015.71 1015.83 1015.94 1016.05 1016.17 1016.28 1016.38 1016.46 1016.52 1016.55 1016.56 1016.57 1016.60 1016.66 1016.77 1016.96 1017.21 1017.54 1017.94 1018.40 1018.89 1019.42 1019.95
1008.41 1009.06 1009.66 1010.18 1010.58 1010.88 1011.09 1011.26 1011.44 1011.67 1011.98 1012.38 1012.85 1013.37 1013.90 1014.41 1014.87 1015.26 1015.57 1015.81 1016.00 1016.15 1016.28 1016.39 1016.50 1016.60 1016.69 1016.77 1016.84 1016.90 1016.95 1017.01 1017.08 1017.18 1017.32 1017.51 1017.75 1018.04 1018.38 1018.78 1019.21 1019.69 1020.18
1008.43 1009.08 1009.68 1010.19 1010.60 1010.90 1011.14 1011.34 1011.55 1011.81 1012.13 1012.53 1013.00 1013.50 1014.03 1014.55 1015.02 1015.44 1015.80 1016.09 1016.33 1016.52 1016.68 1016.81 1016.92 1017.02 1017.10 1017.18 1017.25 1017.33 1017.40 1017.50 1017.60 1017.74 1017.90 1018.10 1018.33 1018.59 1018.90 1019.24 1019.62 1020.04 1020.48
1008.22 1008.86 1009.44 1009.95 1010.37 1010.70 1010.99 1011.26 1011.53 1011.84 1012.21 1012.64 1013.11 1013.63 1014.16 1014.68 1015.18 1015.63 1016.03 1016.38 1016.68 1016.92 1017.12 1017.29 1017.42 1017.52 1017.61 1017.69 1017.76 1017.83 1017.92 1018.03 1018.17 1018.32 1018.50 1018.71 1018.93 1019.18 1019.45 1019.75 1020.07 1020.43 1020.82
1007.82 1008.42 1008.98 1009.48 1009.92 1010.30 1010.66 1011.01 1011.38 1011.78 1012.21 1012.69 1013.20 1013.73 1014.28 1014.81 1015.33 1015.82 1016.26 1016.67 1017.02 1017.33 1017.59 1017.80 1017.96 1018.08 1018.18 1018.26 1018.33 1018.40 1018.50 1018.62 1018.76 1018.93 1019.12 1019.33 1019.55 1019.77 1020.01 1020.26 1020.53 1020.83 1021.15
1007.28 1007.84 1008.37 1008.86 1009.32 1009.77 1010.21 1010.66 1011.13 1011.63 1012.15 1012.70 1013.26 1013.82 1014.39 1014.94 1015.48 1015.99 1016.48 1016.94 1017.35 1017.72 1018.03 1018.29 1018.50 1018.65 1018.76 1018.85 1018.92 1019.00 1019.10 1019.22 1019.37 1019.54 1019.74 1019.94 1020.15 1020.35 1020.55 1020.76 1020.97 1021.21 1021.46
1006.69 1007.21 1007.71 1008.19 1008.68 1009.19 1009.71 1010.26 1010.84 1011.45 1012.06 1012.68 1013.30 1013.91 1014.50 1015.07 1015.63 1016.17 1016.69 1017.18 1017.65 1018.06 1018.43 1018.74 1018.98 1019.17 1019.30 1019.40 1019.49 1019.57 1019.67 1019.79 1019.95 1020.13 1020.32 1020.52 1020.72 1020.90 1021.08 1021.24 1021.40 1021.58 1021.76
1006.13 1006.61 1007.09 1007.58 1008.10 1008.66 1009.26 1009.90 1010.58 1011.28 1011.99 1012.68 1013.36 1014.01 1014.63 1015.23 1015.80 1016.36 1016.90 1017.43 1017.92 1018.38 1018.78 1019.12 1019.40 1019.61 1019.77 1019.89 1019.98 1020.08 1020.18 1020.31 1020.47 1020.65 1020.85 1021.05 1021.24 1021.42 1021.57 1021.71 1021.83 1021.95 1022.09
1005.67 1006.14 1006.62 1007.12 1007.66 1008.26 1008.92 1009.64 1010.39 1011.17 1011.95 1012.71 1013.44 1014.14 1014.79 1015.42 1016.01 1016.59 1017.15 1017.69 1018.20 1018.67 1019.10 1019.46 1019.75 1019.98 1020.15 1020.29 1020.39 1020.49 1020.61 1020.75 1020.91 1021.10 1021.31 1021.51 1021.71 1021.88 1022.03 1022.15 1022.26 1022.35 1022.45
1005.36 1005.84 1006.33 1006.85 1007.42 1008.05 1008.75 1009.50 1010.31 1011.14 1011.97 1012.78 1013.56 1014.30 1014.99 1015.65 1016.27 1016.87 1017.44 1017.99 1018.51 1018.99 1019.41 1019.77 1020.07 1020.30 1020.48 1020.61 1020.72 1020.83 1020.95 1021.10 1021.27 1021.47 1021.68 1021.89 1022.10 1022.28 1022.44 1022.57 1022.67 1022.77 1022.85
1005.24 1005.75 1006.26 1006.80 1007.38 1008.03 1008.73 1009.50 1010.32 1011.17 1012.03 1012.88 1013.69 1014.48 1015.21 1015.91 1016.57 1017.19 1017.78 1018.34 1018.86 1019.34 1019.75 1020.10 1020.38 1020.60 1020.77 1020.89 1021.00 1021.11 1021.23 1021.37 1021.55 1021.75 1021.97 1022.19 1022.41 1022.62 1022.79 1022.94 1023.06 1023.17 1023.26
1005.28 1005.84 1006.39 1006.94 1007.53 1008.16 1008.86 1009.61 1010.41 1011.26 1012.12 1012.98 1013.82 1014.64 1015.42 1016.17 1016.87 1017.53 1018.15 1018.73 1019.25 1019.71 1020.11 1020.44 1020.70 1020.89 1021.04 1021.15 1021.24 1021.34 1021.45 1021.59 1021.76 1021.96 1022.18 1022.42 1022.65 1022.87 1023.07 1023.24 1023.39 1023.52 1023.63
1005.45 1006.06 1006.64 1007.21 1007.79 1008.40 1009.05 1009.77 1010.53 1011.34 1012.18 1013.05 1013.91 1014.76 1015.59 1016.38 1017.14 1017.85 1018.50 1019.10 1019.63 1020.09 1020.47 1020.78 1021.01 1021.18 1021.30 1021.39 1021.47 1021.55 1021.64 1021.77 1021.93 1022.12 1022.34 1022.58 1022.81 1023.04 1023.26 1023.46 1023.63 1023.78 1023.91
1005.68 1006.32 1006.93 1007.50 1008.07 1008.64 1009.25 1009.91 1010.62 1011.38 1012.19 1013.04 1013.91 1014.79 1015.66 1016.51 1017.32 1018.07 1018.77 1019.39 1019.94 1020.40 1020.78 1021.07 1021.28 1021.43 1021.53 1021.60 1021.66 1021.72 1021.81 1021.92 1022.07 1022.25 1022.45 1022.68 1022.91 1023.14 1023.36 1023.57 1023.75 1023.92 1024.06
1005.86 1006.54 1007.16 1007.74 1008.29 1008.83 1009.38 1009.98 1010.62 1011.33 1012.11 1012.93 1013.80 1014.70 1015.61 1016.50 1017.35 1018.16 1018.90 1019.55 1020.11 1020.58 1020.95 1021.24 1021.44 1021.58 1021.67 1021.73 1021.79 1021.85 1021.93 1022.04 1022.17 1022.34 1022.53 1022.74 1022.95 1023.17 1023.38 1023.58 1023.76 1023.92 1024.06
Thickness
5837 5836 5834 5831 5826 5821 5817 5813 5810 5809 5807 5804 5802 5799 5798 5798 5798 5798 5796 5795 5794 5793 5792 5791 5789 5787 5784 5782 5782 5780 5779 5778 5779 5775 5773 5776 5780 5780 5779 5779 5777 5776 5774
5833 5832 5832 5828 5823 5819 5816 5813 5809 5808 5806 5804 5802 5800 5799 5797 5798 5797 5795 5793 5792 5791 5791 5789 5787 5785 5783 5781 5781 5779 5776 5777 5778 5772 5767 5764 5767 5773 5778 5777 5775 5774 5773
5831 5829 5828 5827 5823 5818 5815 5813 5809 5807 5805 5804 5803 5800 5798 5795 5793 5791 5790 5790 5789 5789 5787 5786 5785 5784 5782 5780 5779 5779 5775 5772 5775 5776 5768 5759 5756 5762 5769 5773 5773 5773 5771
5836 5832 5828 5825 5823 5820 5817 5812 5808 5806 5804 5803 5799 5795 5791 5788 5789 5789 5789 5788 5788 5787 5786 5785 5783 5781 5780 5778 5778 5778 5776 5773 5769 5773 5774 5772 5768 5759 5755 5763 5767 5769 5768
5837 5832 5830 5826 5825 5823 5817 5812 5807 5804 5802 5801 5798 5794 5791 5789 5789 5789 5787 5785 5786 5785 5784 5783 5781 5778 5776 5776 5776 5775 5774 5772 5770 5769 5770 5769 5769 5767 5758 5752 5756 5761 5765
5838 5833 5831 5828 5824 5822 5818 5812 5806 5802 5801 5798 5796 5792 5788 5787 5785 5784 5783 5782 5782 5782 5782 5780 5778 5776 5774 5774 5774 5773 5771 5770 5769 5768 5767 5765 5763 5760 5759 5753 5752 5752 5758
5836 5831 5827 5824 5821 5818 5815 5811 5804 5799 5798 5796 5793 5790 5787 5785 5782 5781 5780 5779 5778 5778 5778 5778 5775 5773 5773 5772 5771 5769 5768 5767 5765 5764 5764 5764 5763 5762 5759 5754 5750 5750 5753
5836 5831 5827 5823 5820 5817 5813 5808 5802 5797 5795 5793 5790 5788 5786 5784 5782 5781 5779 5777 5776 5775 5775 5773 5772 5771 5770 5769 5768 5766 5765 5763 5761 5761 5760 5760 5760 5760 5757 5752 5747 5742 5744
5833 5830 5827 5823 5818 5815 5811 5807 5801 5796 5793 5791 5788 5785 5784 5781 5780 5779 5777 5775 5773 5773 5771 5769 5767 5766 5765 5764 5763 5761 5760 5758 5757 5756 5756 5755 5755 5755 5754 5752 5748 5739 5732
5831 5828 5825 5822 5818 5814 5809 5805 5800 5795 5792 5789 5785 5783 5780 5779 5777 5775 5772 5770 5769 5768 5766 5764 5763 5761 5760 5759 5758 5756 5755 5753 5752 5751 5750 5749 5750 5750 5749 5747 5745 5742 5735
5828 5824 5822 5819 5816 5811 5806 5801 5797 5792 5789 5786 5783 5780 5777 5775 5773 5770 5768 5767 5765 5763 5761 5759 5758 5756 5755 5754 5753 5752 5751 5748 5747 5746 5745 5743 5743 5742 5741 5741 5739 5737 5733
5827 5823 5819 5814 5810 5805 5801 5796 5793 5789 5785 5783 5779 5776 5773 5771 5768 5765 5764 5762 5760 5758 5756 5754 5752 5751 5750 5749 5747 5746 5745 5743 5741 5740 5738 5737 5737 5735 5733 5732 5732 5731 5729
5821 5818 5813 5807 5803 5799 5795 5792 5788 5785 5783 5779 5774 5771 5768 5765 5762 5760 5759 5757 5755 5753 5751 5749 5747 5746 5744 5743 5742 5740 5739 5738 5736 5734 5732 5730 5729 5726 5725 5724 5723 5723 5723
5814 5809 5805 5801 5797 5793 5790 5786 5784 5782 5779 5774 5769 5765 5762 5759 5757 5755 5753 5751 5750 5747 5746 5744 5743 5741 5740 5738 5737 5735 5733 5732 5730 5729 5727 5725 5722 5720 5718 5717 5716 5715 5714
5808 5803 5799 5795 5791 5787 5784 5781 5778 5776 5773 5768 5763 5760 5758 5755 5753 5751 5748 5746 5744 5742 5740 5738 5737 5736 5734 5733 5730 5728 5727 5724 5723 5722 5721 5719 5717 5715 5712 5711 5709 5707 5705
5802 5799 5795 5790 5786 5782 5779 5776 5772 5770 5767 5762 5758 5755 5752 5749 5747 5745 5743 5741 5738 5736 5734 5732 5730 5729 5728 5726 5723 5721 5720 5717 5716 5714 5713 5712 5710 5708 5706 5704 5702 5700 5698
5797 5793 5789 5786 5782 5779 5775 5771 5768 5765 5761 5756 5753 5750 5747 5744 5741 5739 5736 5734 5732 5730 5727 5726 5724 5721 5719 5717 5715 5713 5711 5710 5708 5706 5704 5704 5704 5701 5699 5697 5696 5694 5693
5792 5788 5785 5781 5779 5775 5772 5768 5764 5759 5755 5750 5747 5744 5741 5738 5735 5732 5729 5727 5725 5723 5720 5718 5717 5714 5712 5710 5707 5705 5703 5702 5700 5699 5697 5695 5694 5693 5691 5690 5688 5687 5686
5788 5784 5782 5778 5774 5770 5766 5762 5757 5752 5748 5743 5740 5738 5735 5731 5727 5724 5722 5720 5718 5716 5714 5712 5710 5708 5705 5702 5699 5697 5695 5694 5693 5692 5690 5688 5685 5684 5682 5681 5679 5678 5678
5782 5779 5776 5772 5766 5763 5760 5753 5748 5744 5740 5738 5735 5732 5729 5725 5721 5718 5715 5713 5710 5708 5707 5705 5703 5701 5698 5695 5692 5689 5687 5685 5684 5683 5682 5681 5678 5676 5674 5672 5671 5669 5670
5774 5772 5769 5763 5759 5756 5751 5745 5741 5736 5735 5732 5729 5725 5722 5718 5715 5712 5708 5705 5703 5700 5698 5696 5695 5694 5692 5688 5685 5681 5679 5678 5676 5676 5675 5674 5671 5669 5667 5665 5664 5663 5662
5765 5762 5757 5753 5751 5748 5743 5737 5732 5731 5728 5724 5720 5716 5713 5711 5709 5704 5701 5698 5694 5691 5689 5688 5687 5686 5685 5682 5679 5675 5672 5670 5668 5667 5667 5666 5663 5661 5659 5658 5658 5657 5655
5754 5752 5747 5743 5741 5738 5734 5728 5725 5723 5719 5715 5711 5709 5706 5703 5701 5697 5693 5689 5686 5683 5682 5681 5679 5678 5677 5674 5671 5668 5665 5663 5660 5660 5659 5657 5655 5654 5653 5652 5651 5649 5648
5742 5740 5737 5732 5729 5728 5726 5722 5719 5715 5711 5706 5702 5700 5698 5695 5693 5690 5687 5682 5679 5676 5674 5672 5671 5669 5667 5664 5662 5659 5657 5654 5652 5650 5650 5649 5648 5648 5647 5646 5644 5643 5643
5732 5730 5727 5723 5721 5719 5717 5714 5710 5706 5701 5698 5694 5692 5689 5687 5684 5682 5679 5676 5672 5669 5665 5664 5662 5659 5657 5654 5651 5649 5648 5646 5644 5641 5641 5641 5641 5641 5641 5641 5640 5638 5637
5721 5719 5716 5713 5712 5710 5707 5705 5702 5697 5692 5688 5685 5683 5681 5679 5677 5673 5670 5668 5665 5662 5658 5655 5651 5650 5648 5645 5643 5641 5640 5638 5636 5634 5635 5635 5635 5634 5634 5633 5633 5632 5631